Regional Weather Roundup
Issued by NWS

Home | Current Version | Previous Version | Graphics & Text | Print | Product List | Glossary Off
Versions: 1 2 3 4 5 6 7 8 9 10 11 12 13 14 15 16 17 18 19 20 21 22 23 24 25 26 27 28 29 30 31 32 33 34 35 36 37 38 39 40 41 42 43 44 45 46 47 48 49 50

000
ASUS43 KMKX 032100
RWRWI

WISCONSIN REGIONAL WEATHER ROUNDUP
NATIONAL WEATHER SERVICE MILWAUKEE/SULLIVAN WI
300 PM CST TUE MAR 03 2015

NOTE: "FAIR" INDICATES FEW OR NO CLOUDS BELOW 12,000 FEET WITH NO
SIGNIFICANT WEATHER AND/OR OBSTRUCTIONS TO VISIBILITY.

WIZ001-002-006>008-014>016-023>028-032200-
NORTHWEST WISCONSIN

CITY           SKY/WX    TMP DP  RH WIND       PRES   REMARKS
SUPERIOR ARPT  FLURRIES  25  16  66 NW24G30   29.61R WCI  10
ASHLAND        CLOUDY    28  19  69 W13G22    29.57R WCI  17
HAYWARD        LGT SNOW  26  18  71 MISG      29.57S
SIREN          CLOUDY    28  19  71 NW16G24   29.63R WCI  15
CUMBERLAND     LGT SNOW  27  19  74 NW13      29.60R WCI  16
RICE LAKE      FLURRIES  28  20  71 W15       29.63R WCI  17
CHETEK         CLOUDY    28  20  71 W7G18     29.60S WCI  21
LADYSMITH      CLOUDY    28  20  72 W12       29.59R WCI  18
EAU CLAIRE     CLOUDY    29  19  66 W13       29.62R WCI  19
MENOMONIE      CLOUDY    30  21  68 W14       29.64R WCI  20
NEW RICHMOND   CLOUDY    28  20  72 NW15G21   29.65R WCI  16
OSCEOLA        CLOUDY    29  21  73 W14       29.69R WCI  18
$$

WIZ003>005-009-010-017-018-032200-
NORTH CENTRAL WISCONSIN

CITY           SKY/WX    TMP DP  RH WIND       PRES   REMARKS
MANITOWISH WTR LGT SNOW  24  18  78 W12G20    29.49S WCI  13
ARBOR VITAE    LGT SNOW  25  19  80 W10G16    29.49S WCI  15
WOODRUFF       LGT SNOW  25  19  80 W10G16    29.49S WCI  15
RHINELANDER    CLOUDY    26  18  71 W16       29.50R WCI  14
EAGLE RIVER    LGT SNOW  25  17  69 W13G21    29.47S WCI  14
LAND O LAKES   LGT SNOW  26  19  76 W10G17    29.47S WCI  15
PHILLIPS       CLOUDY    25  18  76 NW8G16    29.53R WCI  16
TOMAHAWK       CLOUDY    26  18  69 W10G18    29.53R WCI  17
MEDFORD        CLOUDY    26  19  74 W16       29.54S WCI  13
MERRILL        CLOUDY    28  19  68 W13G18    29.53R WCI  17
$$

WIZ029-030-035-036-043>047-032200-
CENTRAL WISCONSIN

CITY           SKY/WX    TMP DP  RH WIND       PRES   REMARKS
WAUSAU         CLOUDY    26  18  71 W18       29.54R WCI  13
MOSINEE        CLOUDY    27  19  74 W17G28    29.57R WCI  14
MARSHFIELD     CLOUDY    28  19  69 NW15      29.58R WCI  16
STEVENS POINT  CLOUDY    25  20  81 W13       29.57S WCI  13
WAUPACA        CLOUDY    29  23  78 W10G18    29.58S WCI  20
WAUTOMA        CLOUDY    28  25  86 W14       29.60R WCI  17
WISC RAPIDS    CLOUDY    28  20  71 W14G21    29.61R WCI  17
CAMP DOUGLAS   NOT AVBL
$$

WIZ011>013-019>022-031-037>040-048>050-032200-
NORTHEAST WISCONSIN

CITY           SKY/WX    TMP DP  RH WIND       PRES   REMARKS
ANTIGO         CLOUDY    25  18  74 W16       29.50F WCI  12
SHAWANO        MIX PCPN  30  23  76 W7G16     29.54F WCI  23
OCONTO         CLOUDY    28  23  84 W13       29.53S WCI  17
STURGEON BAY   CLOUDY    27  23  86 W14       29.54S WCI  15
GREEN BAY      CLOUDY    28  23  81 W15       29.55S WCI  16
MANITOWOC      CLOUDY    28  27  93 W20G25    29.56R WCI  15
APPLETON       CLOUDY    27  21  80 W17G23    29.57R WCI  14
CLINTONVILLE   CLOUDY    28  21  74 W12G20    29.56S WCI  18
OSHKOSH        CLOUDY    28  22  78 W14G21    29.58R WCI  17
$$

WIZ032>034-041-042-053>061-032200-
SOUTHWEST WISCONSIN

CITY           SKY/WX    TMP DP  RH WIND       PRES   REMARKS
LA CROSSE      CLOUDY    33  24  69 W13       29.66R WCI  24
SPARTA         CLOUDY    30  23  75 W9        29.64S WCI  22
VIROQUA        CLOUDY    29  24  82 W12G20    29.62S WCI  19
BOSCOBEL       CLOUDY    32  24  72 W9        29.68R WCI  24
PRAIRIE DU CHI CLOUDY    32  24  71 W15       29.68R WCI  21
PLATTEVILLE    CLOUDY    32  28  86 W10G18    29.65R WCI  23
$$

WIZ056-057-062-063-064-067-068-032200-
SOUTH CENTRAL WISCONSIN

CITY           SKY/WX    TMP DP  RH WIND       PRES   REMARKS
REEDSBURG      CLOUDY    28  23  81 W15G24    29.62R WCI  17
BARABOO/DELLS  CLOUDY    29  24  80 W8        29.61R WCI  21
LONE ROCK      NOT AVBL
MINERAL POINT  CLOUDY    32  28  86 W13G23    29.63R WCI  22
MADISON        CLOUDY    31  24  75 NW9       29.63R WCI  23
MIDDLETON      CLOUDY    32  26  80 NW14      29.62R WCI  22
WATERTOWN      MIX PCPN  31  28  90 W14       29.59R WCI  21
MONROE         CLOUDY    32  30  93 W17       29.62R WCI  21
JANESVILLE     CLOUDY    34  30  86 W15       29.63R WCI  24
$$

WIZ051-052-058>065-066-070>072-032200-
SOUTHEAST WISCONSIN

CITY           SKY/WX    TMP DP  RH WIND       PRES   REMARKS
MILWAUKEE      CLOUDY    33  26  75 W12       29.60R WCI  24
WAUKESHA       CLOUDY    28  27  93 W12G23    29.59S WCI  18
MILWAUKEE/TIMM CLOUDY    32  27  80 W12G21    29.59R WCI  23
RACINE         CLOUDY    33  27  78 W14G21    29.62R WCI  23
BURLINGTON     CLOUDY    31  27  86 W10       29.61R WCI  22
KENOSHA        CLOUDY    33  28  81 W20G25    29.61R WCI  21
FOND DU LAC    CLOUDY    29  23  78 W17       29.58R WCI  17
SHEBOYGAN      CLOUDY    30  23  75 W18G31    29.56R WCI  18
WEST BEND      CLOUDY    30  27  86 W15G24    29.57R WCI  19
JUNEAU         CLOUDY    29  25  85 W13G18    29.60R WCI  19
$$

LSZ147-162-032200-
LAKE SUPERIOR

STATION/POSITION TIME  TEMP    WIND        PRES    WAVE
                       AIR SEA DIR/SP/G            HT/PER
                 (UTC) (F)     (DEG/KT/KT) (MB)    (FT/S)
DEVILS ISLAND    2000   25     250/ 22/ 25 1000.6F
PORT WING        2040   27     280/ 21/ 25 1001.7F
SAXON HARBOR     2040   29     260/  2/ 15 1001.0F
$$

LMZ867-665-643>646-032200-
LAKE MICHIGAN

STATION/POSITION TIME  TEMP    WIND        PRES    WAVE
                       AIR SEA DIR/SP/G            HT/PER
                 (UTC) (F)     (DEG/KT/KT) (MB)    (FT/S)
NORTHPORT PIER   2008   28     220/  2/ 12  999.7F
SISTER BAY       2013   30     260/ 13/ 16   N/A
KEWAUNEE LAKESHO 2000   29     260/ 14/ 19  999.3F
SHEBOYGAN LAKESH 2000   31     250/  4/  6 1001.7F
PORT WASHINGTON  2000   32     250/  3/  5 1002.4F
MILWAUKEE LAKESH 2000   32     260/ 10/ 14   N/A
KENOSHA   LAKESH 2000   33     260/ 15/ 21 1002.4F
$$

TC  - TEMPERATURE IN CELSIUS
VSB - VISIBILITY IN STATUTE MILES
WCI - WIND CHILL INDEX
HX  - HEAT INDEX




USA.gov is the U.S. government's official web portal to all federal, state and local government web resources and services.